Location: Godiavel Galaoual
(15.2485°N, 12.6604°W)
Time: 02:05:47
(UTC+00:00)

VELOX 1 - Visible Passes

Search period start: 26 July 2021 00:00
Search period end: 05 August 2021 00:00
Orbit: 628 x 641 km, 98.3° (Epoch: 25 July)

Date Brightness Start Highest point End Pass type
(mag) Time Alt. Az. Time Alt. Az. Time Alt. Az.
26 Jul ? 04:31:39 52° N 04:31:39 52° N 04:35:02 10° N visible
27 Jul ? 04:53:48 37° NW 04:53:48 37° NW 04:56:44 10° NNW visible
28 Jul ? 03:38:29 15° ENE 03:38:29 15° ENE 03:40:41 10° NE visible
28 Jul ? 05:15:57 21° WNW 05:15:57 21° WNW 05:17:58 10° NW visible
29 Jul ? 04:00:37 27° ENE 04:00:37 27° ENE 04:03:43 10° NNE visible
29 Jul ? 05:38:06 11° WNW 05:38:06 11° WNW 05:38:20 10° WNW visible
30 Jul ? 04:22:46 43° NNE 04:22:46 43° NNE 04:26:01 10° N visible
31 Jul ? 04:44:55 42° NNW 04:44:55 42° NNW 04:47:54 10° NNW visible
01 Aug ? 03:29:36 11° ENE 03:29:36 11° ENE 03:30:23 10° ENE visible
01 Aug ? 05:07:04 25° WNW 05:07:04 25° WNW 05:09:21 10° NW visible
02 Aug ? 03:51:45 20° ENE 03:51:45 20° ENE 03:54:20 10° NNE visible
02 Aug ? 05:29:14 14° WNW 05:29:14 14° WNW 05:30:13 10° NW visible
03 Aug ? 04:13:54 34° NE 04:13:54 34° NE 04:16:54 10° N visible
04 Aug ? 04:36:03 41° N 04:36:03 41° N 04:38:57 10° N visible
